Weather History for Hailey, ID

Change the Weather History Date:

Wednesday, November 21, 2012

  Actual Average Record
Temperature  
Mean Temperature 40 °F -  
Max Temperature 48 °F 39 °F 60 °F (2002)
Min Temperature 30 °F 21 °F 14 °F (2007)
Degree Days  
Heating Degree Days 25    
Moisture  
Dew Point 31 °F    
Average Humidity 77    
Maximum Humidity 100    
Minimum Humidity 38    
Precipitation  
Precipitation 0.00 in - - ()
Sea Level Pressure  
Sea Level Pressure 29.98 in    
Wind  
Wind Speed 6 mph (WNW)    
Max Wind Speed 15 mph    
Max Gust Speed 23 mph    
Visibility 10 miles    
Events Rain    
Averages and records for this station are not official NWS values.
T = Trace of Precipitation, MM = Missing Value Source: NWS Daily Summary

Daily Weather History Graph

Daily Weather History Graph

Search for Another Location

Airport:

Trip Planner

Search our weather history database for the weather conditions in past years. The results will help you decide how hot, cold, wet, or windy it might be!

Date:

Astronomy

Nov. 21, 2012 Rise Set
Actual Time 7:39 AM MST 5:06 PM MST
Civil Twilight 7:07 AM MST 5:38 PM MST
Nautical Twilight 6:32 AM MST 6:13 PM MST
Astronomical Twilight 5:58 AM MST 6:47 PM MST
Moon 1:35 PM MST (11/21) 12:51 AM MST (11/21)
Length of Visible Light 10h 30m
Length of Day
9h 27m
Waxing Gibbous, 62% of the Moon is Illuminated
Nov 21
Waxing Gibbous
Nov 28
Full
Dec 6
Last Quarter
Dec 13
New
Dec 19
First Quarter

Hourly Weather History & Observations

Time (MST) Temp. Windchill Dew Point Humidity Pressure Visibility Wind Dir Wind Speed Gust Speed Precip Events Conditions
12:15 AM 39.2 °F 34.2 °F 37.4 °F 93% 29.97 in 10.0 mi WNW 6.9 mph - N/A   Overcast
12:35 AM 39.2 °F 34.2 °F 37.4 °F 93% 29.96 in 10.0 mi WNW 6.9 mph - N/A   Overcast
12:55 AM 39.2 °F 32.5 °F 37.4 °F 93% 29.95 in 10.0 mi NW 10.4 mph - N/A   Overcast
1:15 AM 39.2 °F 33.6 °F 37.4 °F 93% 29.95 in 10.0 mi NNW 8.1 mph - N/A   Overcast
1:35 AM 39.2 °F 34.2 °F 37.4 °F 93% 29.94 in 10.0 mi NW 6.9 mph - N/A   Overcast
1:55 AM 39.2 °F 35.9 °F 37.4 °F 93% 29.94 in 10.0 mi NW 4.6 mph - N/A   Overcast
2:15 AM 39.2 °F 33.0 °F 37.4 °F 93% 29.95 in 10.0 mi NNW 9.2 mph - N/A   Overcast
2:35 AM 39.2 °F 34.2 °F 37.4 °F 93% 29.94 in 10.0 mi West 6.9 mph - N/A   Overcast
2:55 AM 39.2 °F 34.2 °F 37.4 °F 93% 29.94 in 10.0 mi NW 6.9 mph - N/A   Light Drizzle
3:15 AM 39.2 °F 33.0 °F 37.4 °F 93% 29.95 in 10.0 mi WNW 9.2 mph - N/A Rain Light Rain
3:35 AM 41.0 °F 38.0 °F 37.4 °F 87% 29.93 in 4.0 mi East 4.6 mph - N/A Rain Light Rain
3:55 AM 41.0 °F 39.0 °F 37.4 °F 87% 29.92 in 10.0 mi WNW 3.5 mph - N/A   Light Drizzle
4:15 AM 39.2 °F 34.2 °F 37.4 °F 93% 29.91 in 10.0 mi WNW 6.9 mph - N/A   Overcast
4:35 AM 39.2 °F 35.9 °F 37.4 °F 93% 29.91 in 10.0 mi NNE 4.6 mph - N/A   Overcast
4:55 AM 39.2 °F - 37.4 °F 93% 29.91 in 10.0 mi Calm Calm - N/A   Mostly Cloudy
5:15 AM 37.4 °F - 37.4 °F 100% 29.90 in 10.0 mi Calm Calm - N/A   Scattered Clouds
5:35 AM 37.4 °F - 37.4 °F 100% 29.90 in 10.0 mi Calm Calm - N/A   Mostly Cloudy
5:55 AM 37.4 °F - 37.4 °F 100% 29.90 in 10.0 mi Calm Calm - N/A   Scattered Clouds
6:47 AM 37.4 °F - 37.4 °F 100% 29.90 in 10.0 mi Calm Calm - N/A   Mostly Cloudy
7:47 AM 42.8 °F 39.3 °F 37.4 °F 81% 29.91 in 7.0 mi East 5.8 mph - N/A Rain Light Rain
8:47 AM 42.8 °F 41.1 °F 37.4 °F 81% 29.91 in 10.0 mi SSW 3.5 mph - N/A   Mostly Cloudy
9:47 AM 44.6 °F - 39.2 °F 81% 29.91 in 10.0 mi Calm Calm - N/A   Mostly Cloudy
11:47 AM 48.2 °F - 33.8 °F 58% 29.90 in 10.0 mi South 9.2 mph 23.0 mph N/A   Mostly Cloudy
12:47 PM 48.2 °F - 30.2 °F 50% 29.92 in 10.0 mi West 15.0 mph 23.0 mph N/A   Mostly Cloudy
1:47 PM 44.6 °F 40.2 °F 30.2 °F 57% 29.92 in 10.0 mi SE 8.1 mph - N/A   Mostly Cloudy
2:50 PM 42.8 °F 38.6 °F 32.0 °F 66% 29.92 in 10.0 mi South 6.9 mph 16.1 mph N/A   Mostly Cloudy
3:55 PM 42.8 °F - 33.8 °F 70% 29.93 in 10.0 mi Calm Calm - N/A   Mostly Cloudy
4:47 PM 41.0 °F 38.0 °F 30.2 °F 65% 29.97 in 10.0 mi SSW 4.6 mph - N/A   Overcast
5:55 PM 39.2 °F 35.9 °F 26.6 °F 61% 29.99 in 10.0 mi West 4.6 mph - N/A   Mostly Cloudy
6:47 PM 39.2 °F 31.6 °F 19.4 °F 45% 30.02 in 10.0 mi WNW 12.7 mph 20.7 mph N/A   Scattered Clouds
7:50 PM 37.4 °F 30.3 °F 14.0 °F 38% 30.06 in 10.0 mi West 10.4 mph 17.3 mph N/A   Scattered Clouds
8:47 PM 35.6 °F 29.2 °F 17.6 °F 48% 30.09 in 10.0 mi WNW 8.1 mph - N/A   Scattered Clouds
9:47 PM 35.6 °F 30.7 °F 17.6 °F 48% 30.12 in 10.0 mi WNW 5.8 mph - N/A   Scattered Clouds
10:15 PM 32.0 °F 26.4 °F 21.2 °F 64% 30.12 in 10.0 mi North 5.8 mph - N/A   Clear
10:35 PM 32.0 °F 25.6 °F 21.2 °F 64% 30.13 in 10.0 mi NNW 6.9 mph - N/A   Clear
10:47 PM 32.0 °F 25.6 °F 21.2 °F 64% 30.14 in 10.0 mi NNW 6.9 mph - N/A   Scattered Clouds
10:55 PM 32.0 °F 25.6 °F 21.2 °F 64% 30.14 in 10.0 mi North 6.9 mph - N/A   Clear
11:15 PM 32.0 °F - 21.2 °F 64% 30.15 in 10.0 mi Calm Calm - N/A   Clear
11:35 PM 32.0 °F - 21.2 °F 64% 30.16 in 10.0 mi Calm Calm - N/A   Clear
11:55 PM 30.2 °F 25.4 °F 21.2 °F 69% 30.17 in 10.0 mi NNE 4.6 mph - N/A   Clear